Location: *
(52.2090°N, 4.1550°W)
Time: 15:10:35
(UTC+00:00)

COSMOS 2455 - Pass Details

Date: 19 July 2019
Orbit: 899 x 911 km, 67.1° (Epoch: 23 August)

Event Time Altitude Azimuth Distance (km) Brightness Sun altitude
Exits shadow 22:55:29 19° 138° (SE) 2,022 4.1 -14.6°
Maximum altitude 22:57:43 24° 108° (ESE) 1,812 4.1 -14.7°
Drops below altitude 10° 23:02:22 10° 57° (ENE) 2,605 5.4 -14.9°
Sets 23:05:20 0° 44° (NE) 3,552 6.3 -15.1°
